Regional Weather Roundup
Issued by NWS Portland, ME

Home | Current Version | Previous Version | Text Only | Print | Product List | Glossary On
Versions: 1 2 3 4 5 6 7 8 9 10 11 12 13 14 15 16 17 18 19 20 21 22 23 24 25 26 27 28 29 30 31 32 33 34 35 36 37 38 39 40 41 42 43 44 45 46 47 48 49 50
000
ASUS41 KGYX 231610
RWRGYX
WEATHER ROUNDUP FOR MAINE AND NEW HAMPSHIRE
NATIONAL WEATHER SERVICE GRAY ME
1200 PM EDT SUN JUL 23 2017

MEZ002-005-006-010-012-015-018-020-021-024-026-027-029-231700-
MAINE

CITY           SKY/WX    TMP DP  RH WIND       PRES   REMARKS
PORTLAND       MOSUNNY   72  42  34 E7        29.90S
SANFORD          N/A     71  44  37 E8        29.91S
BAR HARBOR     SUNNY     69  42  37 N7        29.88S
WISCASSET      CLOUDY    73  42  32 VRB7      29.89F
ROCKLAND       MOSUNNY   69  44  40 VRB6      29.88F
FRYEBURG       SUNNY     70  48  45 VRB5      29.90F
LEWISTONAUBURN SUNNY     70  47  43 VRB3      29.90F
AUGUSTA        SUNNY     69  43  38 CALM      29.90S
WATERVILLE     SUNNY     69  45  41 NE6       29.87F
BANGOR         CLOUDY    70  43  37 N9        29.89F
GREENVILLE       N/A     64  43  46 VRB3      29.89S
MILLINOCKET    MOSUNNY   67  40  37 VRB3      29.89S
HOULTON        PTSUNNY   67  42  40 N6        29.85F
PRESQUE ISLE   MOSUNNY   65  40  39 NW13      29.87F
FRENCHVILLE    PTSUNNY   61  39  44 N9        29.86F
CARIBOU        PTSUNNY   65  42  43 N9G20     29.86S
$$

NHZ002-005-008-009-011-012-014-231700-
NEW HAMPSHIRE

CITY           SKY/WX    TMP DP  RH WIND       PRES   REMARKS
PORTSMOUTH     MOSUNNY   70  45  40 E6        29.90R
ROCHESTER      MOSUNNY   72  45  37 SE6       29.90S
NASHUA         MOSUNNY   74  50  42 E9        29.90S
MANCHESTER     PTSUNNY   73  47  39 E8        29.88S
CONCORD        PTSUNNY   74  52  46 S8        29.89S
LACONIA        SUNNY     70  49  47 E6        29.90F
PLYMOUTH       FAIR      72  55  53 E6        29.89S
BERLIN         MOSUNNY   71  46  40 S3        29.89F
WHITEFIELD     MOSUNNY   72  52  49 VRB3      29.89F
JAFFREY        MOSUNNY   71  52  50 MISG      29.91S
KEENE          MOSUNNY   74  54  49 CALM      29.88S
LEBANON        MOSUNNY   77  57  50 VRB3      29.87S
MT WASHINGTON  FOG       48  48 100 W15G21      N/A  VSB 1/8
$$

VTZ005-007-008-231700-
VERMONT

CITY           SKY/WX    TMP DP  RH WIND       PRES   REMARKS
ST JOHNSBURY     N/A     70  51  51 MISG      29.87F
MONTPELIER     CLOUDY    67  53  61 CALM      29.94S
BURLINGTON     CLOUDY    72  59  63 NW7       29.89S
$$

MAZ007-012-024-CTZ003-RIZ002-NYZ038-NYZ072-231700-
SOUTHERN NEW ENGLAND AND NY

CITY           SKY/WX    TMP DP  RH WIND       PRES   REMARKS
BOSTON         PTSUNNY   70  57  63 E15       29.90R
WORCESTER      SUNNY     71  51  49 NE9       29.89S
NANTUCKET      PTSUNNY   74  66  76 N8        29.82R
PROVIDENCE     CLOUDY    75  54  47 NE16      29.86R
HARTFORD       PTSUNNY   78  57  48 CALM      29.85R
ALBANY         CLOUDY    76  61  59 NW5       29.85R
NEW YORK CITY  PTSUNNY   79  69  71 NE14      29.80S
$$

ANZ081-ANZ082-ANZ150-NHZ014-MEZ023>029-231700-
COASTAL MARINE OBSERVATIONS

STATION/POSITION TIME  TEMP    WIND        PRES    WAVE
                       AIR SEA DIR/SP/G            HT/PER
                 (UTC) (F)     (DEG/KT/KT) (MB)    (FT/S)
MOUNT DESERT ROC 1600   57                 1012.1R
MATINICUS ROCK   1500   61      30/  6/  7 1012.1R
ISLE OF SHOALS   1500   64      50/ 13/ 14 1012.0R
JEFFREYS LEDGE   1506      66                N/A     5/ 6
CASHES LEDGE BUO 1550   63 64              1012.1R   3/ 5
GEORGES BANK BUO 1450   63 62              1007.3    2/ 6
$$

.............KEY..............
   WCI - WIND CHILL
   TC  - TEMPERATURE IN CELSIUS
   VSB - VISIBILITY IN MILES
   HX  - HEAT INDEX
   FAIR- INDICATES FEW OR NO CLOUDS BELOW 12,000 FT, WITH NO
         SIGNIFICANT WEATHER AND/OR OBSTRUCTIONS TO VISIBILITY.






USA.gov is the U.S. government's official web portal to all federal, state and local government web resources and services.